Regional Weather Roundup
Issued by NWS Sioux Falls, SD

Home | Current Version | Previous Version | Text Only | Print | Product List | Glossary On
Versions: 1 2 3 4 5 6 7 8 9 10 11 12 13 14 15 16 17 18 19 20 21 22 23 24 25 26 27 28 29 30 31 32 33 34 35 36 37 38 39 40 41 42 43 44 45 46 47 48 49 50
172
ASUS43 KFSD 290102
RWRFSD

WEATHER ROUNDUP FOR SE SOUTH DAKOTA/SW MINNESOTA/NW IOWA
NATIONAL WEATHER SERVICE SIOUX FALLS SD
800 PM CDT WED JUN 28 2017

NOTE: "FAIR" INDICATES FEW OR NO CLOUDS BELOW 12,000 FEET WITH NO
SIGNIFICANT WEATHER AND OR OBSTRUCTIONS TO VISIBILITY.


SDZ038>040-050-052>070-290200-
SOUTHEAST SOUTH DAKOTA

CITY           SKY/WX    TMP DP  RH WIND       PRES   REMARKS
BROOKINGS      SUNNY     79  59  50 N12       29.64R
CHAMBERLAIN    SUNNY     85  49  29 NW6       29.69R
HURON          SUNNY     82  44  26 NW9       29.65R
MADISON        FAIR      77  55  47 NW14      29.65R
MITCHELL       SUNNY     85  50  29 N9        29.65R
SIOUX FALLS    MOSUNNY   81  62  52 NW9       29.63R
WINNER         FAIR      84  50  30 N6        29.71R
YANKTON        SUNNY     83  62  49 NW8       29.65R
$$

MNZ071-072-080-081-089-090-097-098-290200-
SOUTHWEST MINNESOTA

CITY           SKY/WX    TMP DP  RH WIND       PRES   REMARKS
FAIRMONT       PTCLDY    79  68  69 SW9       29.59R
JACKSON        CLEAR     79  63  57 W9        29.62R
MARSHALL       MOSUNNY   80  61  52 NW17      29.60R
MONTEVIDEO     SUNNY     77  61  57 N13G21    29.60R
PIPESTONE      SUNNY     82  55  39 N12       29.64S
REDWOOD FALLS  CLEAR     79  61  53 NW12      29.57R
TRACY          SUNNY     79  64  61 NW9G17    29.61R
WINDOM         CLEAR     81  63  54 W9        29.61R
WORTHINGTON    CLEAR     79  64  60 W8        29.63R
$$

IAZ001>003-012>014-020>022-031-032-NEZ013-014-SDZ071-290200-
NORTHWEST IOWA

CITY           SKY/WX    TMP DP  RH WIND       PRES   REMARKS
CHEROKEE       CLEAR     82  63  52 W5        29.63R
DENISON        CLEAR     82  68  61 W6        29.66R
ESTHERVILLE    CLEAR     79  67  66 W9        29.61R
LE MARS        SUNNY     84  61  45 VRB7      29.64R
ORANGE CITY    MOSUNNY   81  64  57 W7        29.64R
SHELDON        CLEAR     82  63  51 W9        29.62R
SIOUX CITY     SUNNY     86  68  54 W3        29.63R
SPENCER        CLEAR     81  66  60 W7        29.62R
STORM LAKE     CLEAR     81  66  61 W7        29.65R
$$

ABBREVIATIONS USED IN REMARKS
   TC - TEMPERATURE IN CELSIUS
  WCI - WIND CHILL INDEX
   HX - HEAT INDEX
  VSB - VISIBILITY





USA.gov is the U.S. government's official web portal to all federal, state and local government web resources and services.